ROMMA est une association bénévole à but non lucratif. Votre soutien est indispensable : ADHERER à ROMMA ou FAIRE un DON

Ambérieu-en-Bugey - (01, Ain)

Bugey (255 m)   Longitude: 05° 21' 7"E   Latitude: 45° 58' 24"N Station partenaire n°84
 

Détail journalier du     <<     >>

Température Precipitation Humidité Pression Vent Dir Rafale Dir. rafale
Heure (°C) (mm) (%) (hPa) (km/h) (km/h)
01:00 12.405610083OSO23OSO
02:00 11.505610081SO13OSO
03:00 14.204610085SO32SSE
04:00 14.1048100810SSO37S
05:00 14.9047100710SSO34O
06:00 14.804610078S34SSE
07:00 14.204910074SO21SSE
08:00 13.305410062SO15OSO
09:00 16.804510064SO15OSO
10:00 17.404310067SO27OSO
11:00 19.503910067OSO29SO
12:00 22.103110067SSO39SO
13:00 20.303410077SO32OSO
14:00 18.904310077OSO35SO
15:00 19.804210074OSO26SO
16:00 18.804510078OSO29OSO
17:00 12.407110096NE26NNE
18:00 11.0079101010NNE29NNE
19:00 10.108010109NNE27E
20:00 8.90.68610116NE27NE
21:00 8.31.88610135NE21NE
22:00 7.85.28610151NE11NNE
23:00 7.24.48510151---10ENE
minuit 6.92.88510161---6NNE

Graphique du 25-04-2019

 

Serveur OMMA